This is the latest recevied weather packets stored in our database for station/object DG4DAA-13. If no packets are shown the sender has not sent any weather packets the latest 10 day(s).
| Time | Temp. | Humidity | Pressure | Rain* | Wind** | Luminosity | Snow |
|---|---|---|---|---|---|---|---|
| 1777295323 | 17.22° C | 40% | 1025.1 hPa | 0 mm | - | - | - |
| 1777293524 | 16.67° C | 44% | 1025.3 hPa | 0 mm | - | - | - |
| 1777291723 | 16.67° C | 45% | 1025.5 hPa | 0 mm | - | - | - |
| 1777289923 | 16.11° C | 48% | 1026 hPa | 0 mm | - | - | - |
| 1777288123 | 16.11° C | 47% | 1026 hPa | 0 mm | - | - | - |
| 1777286323 | 15.56° C | 51% | 1026.3 hPa | 0 mm | - | - | - |
| 1777284523 | 15° C | 53% | 1026.5 hPa | 0 mm | - | - | - |
| 1777282723 | 13.89° C | 60% | 1026.5 hPa | 0 mm | - | - | - |
| 1777280923 | 13.33° C | 62% | 1026.9 hPa | 0 mm | - | - | - |
| 1777279171 | 13.33° C | 64% | 1027 hPa | 0 mm | - | - | - |
| 1777279125 | 13.33° C | 64% | 1027 hPa | 0 mm | - | - | - |
| 1777277323 | 12.22° C | 65% | 1027 hPa | 0 mm | - | - | - |
| 1777275565 | 12.22° C | 65% | 1027.3 hPa | 0 mm | - | - | - |
| 1777275565 | 12.22° C | 65% | 1027.3 hPa | 0 mm | - | - | - |
| 1777275523 | 12.22° C | 65% | 1027.3 hPa | 0 mm | - | - | - |
| 1777273723 | 11.11° C | 68% | 1027.2 hPa | 0 mm | - | - | - |
| 1777271923 | 8.89° C | 71% | 1027.2 hPa | 0 mm | - | - | - |
| 1777270158 | 8.33° C | 83% | 1027.2 hPa | 0 mm | - | - | - |
| 1777270123 | 8.33° C | 83% | 1027.2 hPa | 0 mm | - | - | - |
| 1777268324 | 3.89° C | 88% | 1027.3 hPa | 0 mm | - | - | - |
| 1777266524 | 1.11° C | 89% | 1027.1 hPa | 0 mm | - | - | - |
| 1777264724 | 0° C | 88% | 1027.1 hPa | 0 mm | - | - | - |
| 1777262924 | 0° C | 87% | 1026.8 hPa | 0 mm | - | - | - |
| 1777261124 | 0.56° C | 87% | 1026.7 hPa | 0 mm | - | - | - |
| 1777259324 | 1.11° C | 87% | 1026.8 hPa | 0 mm | - | - | - |
* Rain latest hour (hover to see other rain measurements)
** Current wind speed in m/s (hover to see current wind gust speed)